Location: *
(18.5200°S, 46.4500°E)
Time: 22:35:04
(UTC+00:00)

Atlas Centaur 2 - Pass Details

Date: 19 July 2019
Orbit: 459 x 1311 km, 30.4° (Epoch: 24 August)

Event Time Altitude Azimuth Distance (km) Brightness Sun altitude
Rises 17:09:05 0° 242° (WSW) 3,751 6.2 -35.8°
Reaches altitude 10° 17:11:38 10° 239° (WSW) 2,911 5.4 -36.3°
Enters shadow 17:16:14 42° 224° (SW) 1,606 3.7 -37.4°
